Location: Home
(42.5358°N, 72.7383°W)
Time: 12:32:52
(UTC-05:00)

Tiros 1 - Pass Details

Date: 07 December 2021
Orbit: 629 x 664 km, 48.4° (Epoch: 26 January)

Event Time Altitude Azimuth Distance (km) Brightness Sun altitude
Rises 23:21:03 0° 292° (WNW) 2,953 - -69.7°
Reaches altitude 10° 23:23:33 10° 283° (WNW) 2,046 - -69.8°
Maximum altitude 23:27:45 32° 220° (SW) 1,109 - -70.0°
Drops below altitude 10° 23:31:58 10° 157° (SSE) 2,056 - -70.1°
Sets 23:34:29 0° 148° (SSE) 2,969 - -70.1°
